Hourly Data Report for November 02, 2019

All times are specified in Local Standard Time (LST). Add 1 hour to adjust for Daylight Saving Time where and when it is observed.

SEPT-ILES
QUEBEC
Current Station Operator: ECCC - MSC

50°13'00.000" N
66°15'00.000" W
52.60 m
7047914
71279
XZV

Download Data

Hourly Data (November 2019)
Hourly Data Report for November 2, 2019
TIME Temp Definition
°C
Dew Point Definition
°C
Rel Hum Definition
%
Wind Dir Definition
10's deg

Wind Spd Definition
km/h
Visibility Definition
km
Stn Press Definition
kPa
Hmdx Definition


Wind Chill Definition


Weather Definition


00:00 0.9 -2.0 81 29 15   99.78     LegendNANA
01:00 0.2 -3.2 78 30 14   100.08     LegendNANA
02:00 0.1 -3.6 76 29 14   100.33     LegendNANA
03:00 -0.1 -3.5 78 29 13   100.54   -4 LegendNANA
04:00 -0.9 -3.3 84 30 10   100.78   -4 LegendNANA
05:00 -0.8 -3.6 82 30 11   100.95   -5 LegendNANA
06:00 -0.1 -4.4 73 34 8   101.06   -3 LegendNANA
07:00 -0.6 -4.1 78 29 8   101.20   -3 LegendNANA
08:00 0.6 -3.4 75 31 7   101.34     LegendNANA
09:00 1.4 -4.0 67 33 7   101.38     LegendNANA
10:00 2.0 -4.2 64 32 11   101.43     LegendNANA
11:00 2.3 -4.9 59 34 9   101.42     LegendNANA
12:00 3.0 -3.8 61 32 8   101.45     LegendNANA
13:00 3.8 -3.9 57 28 5   101.45     LegendNANA
14:00 3.3 -3.6 61 25 8   101.45     LegendNANA
15:00 2.4 -4.2 62 24 3   101.44     LegendNANA
16:00 -0.1 -3.7 76 24 2   101.45   -1 LegendNANA
17:00 1.6 -3.8 67 22 3   101.45     LegendNANA
18:00 1.7 -3.8 67 22 2   101.47     LegendNANA
19:00 1.6 -3.6 68 15 2   101.44     LegendNANA
20:00 1.9 -3.7 66 15 9   101.44     LegendNANA
21:00 2.0 -3.1 69 15 6   101.40     LegendNANA
22:00 2.2 -2.9 69 13 7   101.31     LegendNANA
23:00 2.5 -3.1 66 13 8   101.27     LegendNANA

Notes on Data Quality.

Legend

  • E = Estimated
  • M = Missing
  • NA = Not Available
Date modified: